Wind_Speed
7 9 9 8 6 4 3 3 5 6 6 8 9 8 6 10 12 9 5 10 10 9 8 8 7 8 9
10 12 10 9 7 5 6 4 4 6 9 8 8 9 9 10 8 6 8 10 10 9 9 9 10 11 11
9 15 15 15 13 9 8 8 10 14 13 16 13 10 16 13 10 8 6 8 9 8 9 10 10 11 11
6 9 11 13 14 14 11 10 12 17 17 14 14 13 14 11 8 7 5 7 7 8 9 8 9 10 11
7 5 9 11 12 12 11 11 8 9 13 16 18 16 12 7 7 6 6 7 7 7 8 9 9 9 9
10 7 10 11 15 16 16 8 4 9 11 11 12 13 11 8 8 4 4 6 6 6 8 8 9 9 9
11 9 12 13 16 16 16 11 6 11 11 8 10 8 8 6 3 0 2 4 4 5 7 8 8 8 8
8 9 9 13 15 14 14 12 11 12 10 4 9 6 7 5 3 1 4 2 2 5 7 9 9 10 8
7 7 9 11 12 14 17 17 6 4 7 5 9 8 7 5 5 3 4 1 3 6 8 8 9 6 5
14 13 13 13 11 8 14 11 9 4 7 5 11 7 4 5 3 2 2 4 5 6 7 7 8 5 4
16 14 12 11 12 13 12 10 10 5 9 8 8 9 4 5 5 4 3 3 2 4 5 7 7 7 5
14 12 12 12 12 11 10 9 8 9 11 7 7 7 6 5 4 3 1 1 2 4 5 6 6 7 7
13 12 11 13 14 14 14 13 13 11 8 6 6 7 8 5 5 5 3 1 2 4 5 5 7 8 8
13 12 13 12 11 11 11 10 10 10 7 5 5 6 6 7 5 6 3 2 2 3 5 5 5 6 8
14 13 11 10 9 8 9 8 6 7 5 5 5 5 6 9 5 5 3 2 3 5 5 6 5 6 9
11 11 11 10 10 9 8 8 9 8 5 5 6 6 5 3 5 3 1 1 3 5 6 9 10 7 9
11 12 12 10 10 10 9 9 9 7 5 5 4 3 3 1 1 3 4 2 4 5 6 9 13 15 12
Wind_Direction
169 197 177 189 162 175 175 193 164 158 169 161 141 134 133 119 124 110 97 78 76 70 64 62 51 45 38
184 175 180 170 166 173 172 146 143 165 167 166 146 148 135 145 135 107 94 80 80 79 78 65 54 49 46
191 192 172 186 179 171 152 152 148 128 127 135 141 132 131 127 122 110 88 81 81 75 67 57 47 39 35
199 178 184 188 189 170 154 147 130 131 137 125 127 133 131 126 120 107 95 94 87 68 57 48 38 32 27
212 177 165 165 180 181 161 159 145 144 129 132 133 133 127 122 106 93 90 94 79 63 50 39 31 26 21
212 193 191 188 187 183 165 152 147 173 153 139 144 146 133 134 118 92 78 88 69 51 39 26 16 13 5
225 216 193 201 196 176 176 171 154 166 159 142 146 139 129 126 155 130 92 98 62 31 16 7 9 1 353
222 201 216 201 191 190 179 156 131 152 146 121 156 146 144 150 146 169 118 101 9 10 359 354 351 354 356
190 164 162 169 179 168 150 140 121 145 159 127 158 142 159 178 188 150 138 205 319 339 344 344 346 6 12
124 127 137 127 128 155 148 152 128 126 168 122 153 149 149 182 185 184 305 306 331 349 352 352 353 13 49
108 107 121 130 132 145 153 156 145 112 162 153 167 173 131 141 177 208 200 264 323 341 354 4 8 16 23
123 121 122 117 115 120 126 134 139 135 148 157 148 160 152 149 167 199 207 314 3 355 15 25 27 23 15
133 128 131 126 119 115 111 110 111 112 117 127 139 155 162 152 160 172 178 214 4 17 18 27 22 19 19
143 141 137 130 125 125 121 115 109 94 94 110 131 145 143 159 152 147 135 156 6 7 12 22 359 345 344
149 145 147 145 138 144 142 130 121 122 96 96 113 137 156 135 130 140 122 87 359 5 0 352 355 339 327
160 165 163 164 161 159 150 138 134 129 130 116 118 105 112 111 151 133 95 101 331 345 348 332 334 326 316
173 175 173 173 167 162 155 148 138 143 138 129 132 175 183 150 218 190 174 267 331 0 324 324 309 316 316
Height
812 814 815 816 815 817 819 821 822 821 822 823 823 825 827 829 830 831 831 834 835 836 837 839 838 835 835
810 812 813 813 815 817 820 821 821 822 822 822 823 825 828 829 831 832 833 835 836 837 839 838 837 834 834
806 808 809 810 813 817 818 820 820 822 821 822 823 826 828 830 831 832 834 836 837 839 837 836 836 835 833
802 804 806 809 812 814 817 819 820 821 822 824 825 827 829 831 832 834 835 837 839 838 837 838 835 834 834
802 804 805 807 810 813 816 818 821 822 823 825 826 828 831 832 834 835 837 838 838 837 837 836 834 834 834
800 802 803 805 808 811 814 817 821 822 823 825 827 829 831 833 835 835 837 838 837 837 836 836 835 834 833
798 800 801 803 806 809 811 814 817 820 823 826 828 830 832 834 835 836 837 837 837 837 837 836 835 834 833
796 798 799 801 804 806 810 813 817 820 822 826 828 830 832 834 835 836 837 837 837 837 836 835 834 833 831
796 797 799 801 803 805 808 812 818 821 823 824 828 830 832 833 834 836 837 837 837 836 835 834 833 832 832
795 797 799 802 805 807 810 812 814 820 822 824 826 829 831 833 834 835 836 836 836 836 835 833 832 831 831
798 801 804 806 806 808 809 811 813 817 820 822 825 827 829 832 834 835 835 835 836 835 834 833 831 830 830
801 804 806 807 807 809 810 812 814 816 819 821 823 825 827 831 833 834 835 835 834 834 833 832 831 830 830
803 806 807 808 809 810 812 814 816 818 819 821 823 825 827 829 831 833 834 834 834 833 832 831 831 831 830
803 806 808 810 811 812 814 816 818 820 821 822 824 825 828 829 831 832 833 834 833 832 832 831 831 831 830
804 806 809 810 812 814 816 818 819 821 822 824 825 826 828 830 831 832 833 833 833 832 831 831 830 830 830
805 807 809 811 813 815 817 819 820 822 824 825 826 828 830 831 831 831 832 832 832 832 831 830 828 829 828
805 807 809 811 813 815 817 819 821 823 824 825 827 828 829 830 831 832 832 832 832 831 831 830 829 827 826